DECAYED

METEOR 2-7 DEB, 28599 (Decayed)

Orbit data source: Space-Track

METEOR 2-7 DEB, 28599 was space debris in LEO originally from a launch on Thu, 14 May 1981 UTC launched from the Plesetsk Missile And Space Complex (PKMTR). Debris objects in space refer to the collection of defunct objects orbiting the Earth. Examples of debris include non-operational satellites, rocket bodies, and fragments generated from explosions, collisions, or faulty payload assembly.

Not visible in the next 10 days
METEOR 2-7 DEB details
Identifier
28599, 1981-043H
Orbit
Decayed
Last TLE update4 months ago
Origin
Flag of CISKVR (CIS)
ManufacturerUnknown
MissionDecayed spacecraft
Bus & MotorUnknown
MassUnknown
Launch date (UTC)
1981-05-14 (44 years ago)
Launch vehicleUnknown
Launch site
Plesetsk Missile And Space Complex (PKMTR)
Object type
Payload
Rocket body
Debris
Shape & HBRUnknown
Radar Cross SectionSmall (<0.1 m²)

Expand to show TLE details & history

TLE from 4 months ago
0 METEOR 2-7 DEB
1 28599U 81043H   24251.55762310  .00808792  00000-0  22954-1 0  9999
2 28599  81.1962 341.9106 0031102 268.6768  91.0907 15.33400417156912
Epoch: 2024-09-07T13:22Z
Definitive object data (Epoch: 2024-09-07T13:22:58.635Z)
Latitude-0.00004°
Longitude154.05219°
Altitude469.212 km
Speed7.631 km/s
True Right ascension22h 47m 38s
True Declination0° 00' 00"
Sunlit
Object was in full shadow at TLE epoch
Visualization observer readout
Observer readout values are unavailable because the object's trajectory could not be propagated. This is usually caused when the trajectory data is faulty or the object's orbit has decayed.
Visualization observer readout
Observer readout values are unavailable because the object's trajectory could not be propagated. This is usually caused when the trajectory data is faulty or the object's orbit has decayed.
Orbital elements
Apogee altitude483.966 km
Perigee altitude441.413 km
Semi-major axis6,840.826 km
Eccentricity0.0031102
Inclination81.1962°
RAAN341.9106°
Arg. of periapsis268.6768°
True anomaly91.44701°
Mean anomaly91.0907°
Eccentric anomaly91.26886°
Mean motion3.83602 °/min
BSTAR0.022954
Orbital period93.85 mins
Loading maneuver chart data...
Loading historical data...
Loading historical data...
Loading historical data...
Loading historical data...
Loading historical data...
Loading historical data...
Loading historical data...

METEOR 2-7 DEB Visibility forecast

Observer location: undefined°, undefined

This satellite is decayed
Span
Click to sort rows by Start time (UTC) header in descending order
Start Az.
Max El. time (UTC)
Max El. Az.
Max El.
End time (UTC)
End Az.
|